CAPE
407 47 45 68 199 35 6 6 93 140 113 164 184 262 661 459 421 874 760 738 1188 1206
510 409 332 338 355 86 200 73 42 102 196 265 249 228 512 296 501 562 951 706 1068 898
30 187 320 296 324 335 340 328 275 202 210 280 367 776 653 689 681 808 406 397 598 905
87 97 179 149 125 274 384 427 433 306 315 467 529 637 772 760 719 523 844 832 691 810
208 233 136 157 136 187 214 334 375 389 640 520 533 967 665 701 658 737 618 434 364 176
300 334 385 384 213 159 136 311 393 632 648 602 645 635 774 785 710 796 564 393 323 125
301 569 546 516 350 447 516 568 650 724 729 574 642 774 860 830 835 701 595 486 303 127
411 637 764 679 617 552 533 479 591 897 750 425 621 400 874 930 722 744 681 516 450 152
435 606 787 800 701 666 618 737 903 555 787 937 453 205 306 246 564 778 685 533 386 423
688 901 945 659 573 581 830 1328 1201 667 647 946 1276 233 301 248 400 702 840 763 603 305
842 914 942 880 862 1101 1023 1367 1222 949 1031 1072 873 195 265 199 435 720 1006 1104 1024 780
897 1010 1083 1097 1251 1320 1276 875 931 1154 1166 1405 1573 504 231 197 532 974 1057 1066 1094 783
905 998 1066 1333 1206 1216 1490 744 574 574 841 784 1499 880 174 146 400 1221 831 947 921 252
1162 1714 1409 1438 905 1315 1182 1236 1081 643 1228 1121 893 368 192 36 405 431 535 571 529 191
CIN
-71 -258 -141 -191 -86 -136 -174 -0 -80 -51 -52 -30 -24 -6 -0 -0 -0 -0 -0 -0 -0 -0
-38 -36 -50 -53 -29 -132 -76 -129 -17 -84 -42 -25 -22 -14 -0 -0 -0 -0 -0 -0 -0 -0
-256 -128 -43 -54 -36 -29 -28 -28 -31 -39 -27 -8 -0 -0 -0 -0 -0 -0 -0 -0 -0 -0
-172 -146 -82 -88 -110 -39 -14 -7 -1 -8 -3 -0 -0 -0 -0 -0 -0 -0 -0 -0 -0 -0
-93 -54 -60 -62 -66 -40 -34 -8 -2 -0 -0 -0 -0 -0 -0 -0 -0 -0 -0 -0 -0 -0
-80 -29 -2 -3 -15 -24 -27 -4 -1 -0 -0 -0 -0 -0 -0 -0 -0 -0 -0 -0 -0 -16
-50 -3 -0 -0 -0 -0 -0 -0 -0 -0 -0 -0 -0 -0 -0 -0 -0 -0 -0 -0 -1 -8
-32 -1 -0 -0 -0 -0 -0 -0 -0 -0 -0 -0 -0 -0 -9 -0 -0 -0 -0 -0 -0 -2
-17 -2 -0 -0 -0 -0 -0 -0 -0 -0 -0 -0 -0 -16 -11 -29 -7 -0 -0 -0 -0 -3
-15 -1 -0 -0 -0 -0 -0 -0 -0 -0 -0 -0 -0 -7 -20 -92 -25 -2 -0 -0 -0 -0
-19 -1 -0 -0 -0 -0 -0 -0 -0 -0 -0 -0 -0 -5 -28 -23 -23 -1 -0 -0 -0 -0
-16 -0 -0 -0 -0 -0 -0 -0 -0 -0 -5 -0 -2 -2 -11 -43 -4 -0 -0 -0 -0 -1
-4 -0 -0 -0 -0 -0 -0 -0 -0 -0 -0 -14 -0 -4 -15 -66 -8 -0 -0 -0 -1 -4
-0 -0 -0 -0 -105 -1 -0 -0 -2 -0 -0 -0 -8 -63 -34 -11 -31 -3 -0 -0 -8 -5
Wind_Speed
26 nan nan nan 30 nan nan nan nan 31 30 31 32 34 36 33 31 27 30 25 26 29
29 30 28 30 32 nan 33 nan nan 31 31 33 33 35 34 33 35 33 33 35 33 33
nan 34 35 34 34 33 32 32 32 33 33 34 36 38 38 38 38 36 38 37 38 35
nan nan 38 36 35 35 34 33 32 33 32 34 36 36 38 38 37 37 36 37 37 35
38 37 37 38 36 36 34 33 33 33 33 34 35 36 37 35 34 33 31 31 36 35
40 38 39 37 37 37 35 33 32 33 33 33 37 35 33 40 40 39 34 32 31 34
43 41 39 38 39 39 37 35 35 35 36 38 37 35 42 41 39 34 32 30 33 28
43 44 42 42 42 40 37 36 36 38 40 39 38 43 48 42 30 27 27 28 29 29
43 44 43 43 43 40 38 38 39 39 41 43 42 49 46 39 26 25 26 24 27 25
45 46 46 43 44 42 40 38 38 41 41 39 35 45 42 36 25 20 23 22 25 24
48 46 46 47 48 46 44 42 43 39 39 37 32 42 34 29 17 18 21 22 23 26
49 48 48 49 48 46 45 44 43 41 42 37 32 39 31 28 14 20 24 25 26 26
49 49 48 47 41 50 37 45 41 40 38 35 29 26 38 29 20 24 26 22 25 28
49 50 45 42 47 27 52 42 39 37 34 32 19 18 30 nan 25 22 22 21 26 25
Wind_Direction
312 nan nan nan 305 nan nan nan nan 319 315 316 318 318 318 318 308 293 283 284 283 287
314 314 311 312 313 nan 308 nan nan 309 313 317 317 315 308 310 306 301 290 283 280 283
nan 313 314 315 316 314 312 313 312 312 312 314 314 310 312 304 298 297 291 287 279 282
nan nan 313 316 316 315 312 311 313 310 309 312 316 309 306 309 307 290 281 282 279 272
315 313 314 317 315 312 311 310 313 313 316 315 309 309 310 309 300 292 290 281 273 264
316 317 318 316 315 314 311 311 313 313 317 313 315 306 307 303 303 296 290 291 279 269
318 320 321 319 318 317 315 314 317 318 318 317 317 316 318 307 307 301 291 287 288 284
320 323 323 321 320 317 315 316 318 321 322 319 315 316 299 308 304 297 299 298 299 290
321 321 322 318 316 319 319 319 322 319 319 316 316 306 310 307 301 302 307 299 301 303
321 321 317 317 318 319 318 320 317 316 319 320 323 320 319 317 307 306 302 303 308 307
319 318 319 322 323 321 320 321 317 321 325 326 320 323 324 327 319 300 303 311 312 319
316 320 322 323 322 319 320 319 320 327 331 330 330 325 325 324 321 312 311 313 310 311
313 315 320 320 316 309 319 323 323 323 324 321 318 313 317 309 299 309 310 308 308 316
310 314 316 316 305 307 315 313 316 319 319 316 286 297 291 nan 301 306 309 318 316 315